Regional Weather Roundup
Issued by NWS

Home | Current Version | Previous Version | Graphics & Text | Print | Product List | Glossary On
Versions: 1 2 3 4 5 6 7 8 9 10 11 12 13 14 15 16 17 18 19 20 21 22 23 24 25 26 27 28 29 30 31 32 33 34 35 36 37 38 39 40 41 42 43 44 45 46 47 48 49 50
599
ASUS45 KBOU 292107
RWRCO

WEATHER ROUNDUP FOR COLORADO
NATIONAL WEATHER SERVICE DENVER/BOULDER CO
300 PM MDT FRI JUL 29 2016

NOTE: "FAIR" INDICATES FEW OR NO CLOUDS BELOW 12000 FEET WITH NO
SIGNIFICANT WEATHER AND/OR OBSTRUCTIONS TO VISIBILITY.

COZ001>005-013-030-031-292200-
...NORTHWEST COLORADO...

CITY           SKY/WX    TMP DP  RH WIND       PRES   REMARKS
CRAIG          FAIR      90  27  10 CALM      30.15F
HAYDEN         FAIR      86  30  13 W7        30.20F
MEEKER         FAIR      88  33  14 W12G18    30.17F
MOUNT WERNER   NOT AVBL
STEAMBOAT SPGS FAIR      85  33  16 S13       30.21F
WALDEN         FAIR      77  30  18 W6        30.32F
$$

COZ006>008-011-292200-
...WEST CENTRAL VALLEYS...

CITY           SKY/WX    TMP DP  RH WIND       PRES   REMARKS
GRAND JUNCTION FAIR     100  32   9 W10       30.00F
MONTROSE       FAIR      94  34  12 N9G20     30.12F
EAGLE          SUNNY     88  30  12 W6G22     30.19F
RIFLE          FAIR      93  32  11 W6        30.07F
DELTA          NOT AVBL
NUCLA          NOT AVBL
$$

COZ017>023-064>068-292200-
...SOUTHWEST COLORADO...

CITY           SKY/WX    TMP DP  RH WIND       PRES   REMARKS
DURANGO        FAIR      90  28  11 VRB5      30.16F
CORTEZ         FAIR      92  30  11 W12G23    30.10F
PAGOSA SPRINGS FAIR      83  27  13 SW8       30.28S
TELLURIDE      PTSUNNY   80  29  15 CALM      30.43F
WOLF CREEK PAS FAIR      64  28  25 NE8G26    30.67F
$$

COZ009-010-012-014-032>034-037-058>063-292200-
...CENTRAL COLORADO...

CITY           SKY/WX    TMP DP  RH WIND       PRES   REMARKS
ASPEN          FAIR      83  30  14 VRB6G17   30.28F
BUENA VISTA    FAIR      86  18   8 NW15G26   30.26F
COPPER MTN     FAIR      64  19  17 NW17G33   30.66S
BERTHOUD PASS  FAIR      55  41  58 N24       30.67F THUNDER
COTTONWOOD PAS FAIR      81  -4   4 CALM      30.45S
GUNNISON       FAIR      84  30  14 NW22G31   30.29F
KREMMLING      FAIR      86   5   4 NW12      30.26F
LEADVILLE      PTSUNNY   72  18  13 VRB7G22   30.46F
MONARCH PASS   FAIR      68  19  15 MISG      30.74S
SALIDA         FAIR      91   9   5 W16G23    30.28F
SUNLIGHT       FAIR      72  32  23 MISG      30.59F
WILKERSON PASS FAIR      64  37  36 NE7       30.60F
$$

COZ069>075-292200-
...SAN LUIS VALLEY/SANGRE DE CRISTO MOUNTAINS...

CITY           SKY/WX    TMP DP  RH WIND       PRES   REMARKS
ALAMOSA        FAIR      90  30  11 N14G26    30.22F
LA VETA PASS   FAIR      75  46  35 NE17G25   30.49F
SAGUACHE       FAIR      88  27  11 NW21G28   30.24F
$$

COZ035-036-038>040-292200-
...NORTHERN COLORADO FRONT RANGE...

CITY           SKY/WX    TMP DP  RH WIND       PRES   REMARKS
DENVER INTL AP PTSUNNY   85  53  33 E10       30.13F
DMNS CITY PARK   N/A     85  52  32 NW5G10    30.12F
AURORA         MOSUNNY   84  53  34 NE7       30.15F
FRONT RANGE AP PTSUNNY   86  52  30 NE8       30.15F
ERIE MUNI ARPT FAIR      84  52  32 CALM      30.12F
BOULDER MUN AP FAIR      82  54  36 NE3       30.14F
CENTENNIAL     FAIR      83  52  34 NE7       30.17F
BROOMFIELD     MOSUNNY   82  54  36 CALM      30.17F
LONGMONT       NOT AVBL
$$

COZ041-046-047-076>085-087-088-292200-
...PIKES PEAK/PALMER DIVIDE AND SOUTHERN FOOTHILLS...

CITY           SKY/WX    TMP DP  RH WIND       PRES   REMARKS
COLO. SPRINGS  PTSUNNY   76  55  48 S10       30.23F THUNDER
A. F. ACADEMY  MOSUNNY   76  56  49 SE12G21   30.23F
SCHRIEVER AFB  NOT AVBL
ELLICOTT       NOT AVBL
FALCON         NOT AVBL
FORT CARSON    SUNNY     72  60  65 W5        30.19F
LIMON          FAIR      79  56  45 SE15G24   30.17F
MONUMENT HILL  PTSUNNY   73  52  46 SE5       30.28F
TRINIDAD       NOT AVBL
$$

COZ042>045-048>051-090-091-292200-
...NORTHEAST COLORADO...

CITY           SKY/WX    TMP DP  RH WIND       PRES   REMARKS
GREELEY ARPT   FAIR      84  57  39 SE10G20   30.12F
AKRON          FAIR      79  54  41 SE16G23   30.14F
BURLINGTON     FAIR      79  60  52 SE9G21    30.14F
WRAY           FAIR      81  61  50 S13       30.12S
STERLING       NOT AVBL
HOLYOKE        NOT AVBL
FORT MORGAN    NOT AVBL
$$

COZ086-089-092>099-292200-
...SOUTHEAST COLORADO...

CITY           SKY/WX    TMP DP  RH WIND       PRES   REMARKS
PUEBLO         FAIR      86  56  35 E9G17     30.11F
LA JUNTA       FAIR      84  62  47 E21       30.08F
LAMAR          FAIR      83  62  49 E14G22    30.07F
SPRINGFIELD      N/A     82  62  50 SE17G23   30.11F
$$




USA.gov is the U.S. government's official web portal to all federal, state and local government web resources and services.